カタログに戻る

SZ-21 MODULE

運用中科学VLEO
NORAD 66515·PAYLOAD·🇨🇳 China

打ち上げ Oct 31, 2025 から Jiuquan Satellite Launch Center

Loading…

次のパス (今後24時間)

TLE

最新Source: Space-Track

元期: Sep 13, 2026, 23:53 UTC

1 66515U 25246C   26256.99543840  .00069076  00000-0  28054-3 0  9995
2 66515  41.4690 110.8568 0012029 293.4243  66.5339 15.85143303 47791

AllMySatでSZ-21 MODULEをリアルタイム追跡

Download on the App Store